TimeEET,TemperatureF,Dew PointF,Humidity,Sea Level PressureIn,VisibilityMPH,Wind Direction,Wind SpeedMPH,Gust SpeedMPH,PrecipitationIn,Events,Conditions,WindDirDegrees,DateUTC
12:00 AM,87.8,55.4,33,29.65,-9999.0,North,10.4,-,N/A,,Clear,350,2013-07-05 22:00:00
1:00 AM,87.8,57.2,35,29.62,-9999.0,North,11.5,-,N/A,,Clear,360,2013-07-05 23:00:00
2:00 AM,86.0,60.8,43,29.62,-9999.0,North,12.7,-,N/A,,Clear,360,2013-07-06 00:00:00
3:00 AM,84.2,60.8,45,29.62,-9999.0,North,15.0,-,N/A,,Clear,360,2013-07-06 01:00:00
4:00 AM,84.2,60.8,45,29.62,-9999.0,North,16.1,-,N/A,,Clear,360,2013-07-06 02:00:00
5:00 AM,82.4,59.0,45,29.62,-9999.0,North,16.1,-,N/A,,Clear,360,2013-07-06 03:00:00
6:00 AM,84.2,60.8,45,29.62,-9999.0,North,17.3,-,N/A,,Clear,360,2013-07-06 04:00:00
7:00 AM,87.8,59.0,38,29.65,-9999.0,North,18.4,-,N/A,,Clear,360,2013-07-06 05:00:00
8:00 AM,89.6,57.2,33,29.68,-9999.0,North,19.6,-,N/A,,Clear,360,2013-07-06 06:00:00
9:00 AM,93.2,55.4,28,29.68,-9999.0,North,16.1,-,N/A,,Clear,360,2013-07-06 07:00:00
10:00 AM,95.0,59.0,30,29.65,-9999.0,North,15.0,-,N/A,,Clear,10,2013-07-06 08:00:00
11:00 AM,95.0,59.0,30,29.65,-9999.0,North,17.3,-,N/A,,Clear,10,2013-07-06 09:00:00
12:00 PM,95.0,57.2,28,29.65,-9999.0,NNE,13.8,-,N/A,,Clear,20,2013-07-06 10:00:00
1:00 PM,98.6,57.2,25,29.62,-9999.0,North,15.0,-,N/A,,Clear,10,2013-07-06 11:00:00
2:00 PM,100.4,53.6,21,29.62,-9999.0,North,15.0,-,N/A,,Clear,10,2013-07-06 12:00:00
3:00 PM,102.2,53.6,20,29.62,-9999.0,North,11.5,-,N/A,,Clear,10,2013-07-06 13:00:00
4:00 PM,102.2,51.8,18,29.59,-9999.0,NNE,10.4,-,N/A,,Clear,30,2013-07-06 14:00:00
5:00 PM,102.2,50.0,17,29.59,-9999.0,North,11.5,-,N/A,,Clear,10,2013-07-06 15:00:00
6:00 PM,98.6,51.8,21,29.59,-9999.0,North,10.4,-,N/A,,Clear,10,2013-07-06 16:00:00
7:00 PM,93.2,51.8,24,29.59,-9999.0,North,10.4,-,N/A,,Clear,10,2013-07-06 17:00:00
8:00 PM,93.2,51.8,24,29.62,-9999.0,NNE,5.8,-,N/A,,Clear,20,2013-07-06 18:00:00
9:00 PM,91.4,53.6,28,29.65,-9999.0,Calm,Calm,-,N/A,,Clear,0,2013-07-06 19:00:00
10:00 PM,89.6,51.8,27,29.65,-9999.0,Variable,1.2,-,N/A,,Clear,0,2013-07-06 20:00:00
11:00 PM,86.0,53.6,33,29.65,-9999.0,Variable,2.3,-,N/A,,Clear,0,2013-07-06 21:00:00